Meath Environmental Platform

Observations for Trim Patrick St

Time AQI Temp °C Hum % Pres Pa CO μg/m³ H₂S μg/m³ NO μg/m³ NO₂ μg/m³ O₃ μg/m³ SO₂ μg/m³ PM1 μg/m³ PM2.5 μg/m³ PM10 μg/m³
Friday 7 August 2026
07:44 1 15.5 75 38,460 0.36 0 2.51 16.94 20.81 0 2 5.56 6.12
07:43 1 15.4 75 38,460 0.35 0 2.54 17.89 16.81 0 2 5.54 6.09
07:42 1 15.3 75 38,460 0.35 0 2.55 15.61 17.62 0 2.86 5.53 6.08
07:41 1 15.2 75 38,460 0.34 0.52 2.6 20.2 22.86 0 2.86 5.54 6.09
07:40 1 15.1 76 38,460 0.34 0.91 2.62 18.29 20.79 0 3.71 7.62 8.38
07:39 1 15 76 38,460 0.35 0.02 2.72 19.62 16.56 0 2 6.22 6.84
07:37 1 14.9 76 38,460 0.33 0.31 2.82 21.46 18.92 0 2.86 6.19 6.81
07:36 1 14.8 76 38,460 0.32 0 2.95 16.48 20.58 0 2.86 7.61 8.37
07:35 1 14.7 76 38,460 0.32 0 2.89 16.61 14.72 0 2.86 6.88 7.57
07:34 1 14.7 76 38,460 0.31 0.05 2.85 16.63 20.38 0 2 6.17 6.79
07:33 1 14.7 76 38,460 0.31 0.08 2.85 17.68 17.55 0 2 6.16 6.78
07:32 1 14.6 76 38,460 0.33 0.39 2.84 21.29 19.16 0 3.71 7.59 8.35
07:31 1 14.5 76 38,460 0.32 0.44 2.87 20.96 18.11 0 3.71 6.88 7.57
07:30 1 14.5 76 38,460 0.33 0.93 2.9 17.55 21.17 0 2.86 6.86 7.55
07:29 1 14.4 77 38,460 0.32 0.34 2.94 21.13 18.09 0 2 4.72 5.19
07:28 1 14.4 77 38,460 0.3 0.28 2.88 15.11 14.24 0 2 6.12 6.73
07:27 1 14.4 77 38,460 0.31 0.34 2.94 21.14 19.2 0 2.86 6.12 6.74
07:26 1 14.3 77 38,460 0.32 0 3.08 15.11 17.32 0 2 5.44 5.98
07:25 1 14.3 77 38,460 0.32 0.57 3.11 21.66 21.49 0 2 5.41 5.95
07:23 1 14.2 77 38,460 0.3 0 3.09 16.62 18.68 0 2.86 6.83 7.51